Location: Équennes
(49.7375°N, 1.9622°E)
Time: 15:26:21
(UTC+00:00)

Cosmos 2227 Rocket - Visible Passes

Search period start: 30 September 2023 00:00
Search period end: 10 October 2023 00:00
Orbit: 837 x 846 km, 71.0° (Epoch: 29 September)

Date Brightness Start Highest point End Pass type
(mag) Time Alt. Az. Time Alt. Az. Time Alt. Az.
30 Sep 5.0 04:01:51 10° SE 04:04:55 15° E 04:07:58 10° ENE visible
01 Oct 5.0 03:47:01 10° SE 03:49:52 14° E 03:52:42 10° ENE visible
02 Oct 5.0 03:32:14 10° ESE 03:34:50 13° E 03:37:26 10° ENE visible
02 Oct 2.5 05:12:14 10° SSW 05:17:54 77° ESE 05:23:36 10° NNE visible
03 Oct 5.0 03:17:28 10° ESE 03:19:48 13° E 03:22:07 10° ENE visible
03 Oct 2.5 04:57:11 10° SSW 05:02:49 73° ESE 05:08:30 10° NNE visible
04 Oct 5.0 03:02:45 10° ESE 03:04:46 12° E 03:06:47 10° ENE visible
04 Oct 2.5 04:42:07 10° SSW 04:47:45 70° ESE 04:53:25 10° NNE visible
05 Oct 5.0 02:48:07 10° ESE 02:49:44 11° E 02:51:21 10° ENE visible
05 Oct 2.6 04:27:03 10° SSW 04:32:40 67° ESE 04:38:19 10° NNE visible
06 Oct 5.0 02:33:37 10° ESE 02:34:42 11° E 02:35:47 10° E visible
06 Oct 2.6 04:12:00 10° SSW 04:17:35 64° ESE 04:23:13 10° NNE visible
07 Oct 2.7 03:57:20 12° S 04:02:31 61° ESE 04:08:08 10° NE visible
08 Oct 2.7 03:43:36 20° S 03:47:27 58° ESE 03:53:02 10° NE visible
08 Oct 3.1 05:26:49 10° WSW 05:31:51 31° NW 05:36:54 10° NNE visible
09 Oct 2.7 03:29:42 30° S 03:32:23 55° ESE 03:37:56 10° NE visible
09 Oct 3.0 05:11:39 10° WSW 05:16:44 32° NW 05:21:50 10° NNE visible
